DateTimeUTC,F1_A11,F1_S11,BsB_S11,BsG_S11,BsR_S11,BbsB_S11,BbsG_S11,BbsR_S11,BaB_A11,BaG_A11,BaR_A11,Tu_S11,T_S11,Uu_S11,U_S11,P_S11,T1_A11
2021-11-05T17:00:00Z,00000200,21000000,,,,,,,-000.35,-000.24,0000.00,19.1,26.1,,00.0,0650.4,31.0
2021-11-05T17:01:00Z,00000200,21000000,,,,,,,0000.07,0000.18,0000.03,19.1,26.1,,00.0,0650.4,31.0
2021-11-05T17:02:00Z,00000200,21000000,,,,,,,0000.04,-000.10,-000.16,19.0,26.0,,00.0,0650.4,31.0
2021-11-05T17:03:00Z,00000200,61000000,,,,,,,0000.22,-000.21,0000.11,19.0,26.0,,00.0,0650.4,31.0
2021-11-05T17:04:00Z,00000200,41000000,0000.43,0000.02,0000.38,0000.80,-000.21,-000.13,0000.17,0000.24,-000.02,19.0,25.8,,00.0,0651.3,31.0
2021-11-05T17:05:00Z,00000200,01000000,-000.19,-000.28,-000.20,0000.02,-000.06,-000.17,0000.05,0000.40,-000.04,19.1,25.7,,00.0,0651.3,31.0
2021-11-05T17:06:00Z,00000200,01000000,-000.30,-000.21,-000.15,-000.15,-000.13,0000.21,0000.37,0000.27,0000.63,19.1,25.8,,00.0,0651.3,31.0
2021-11-05T17:07:00Z,00000200,01000000,-000.20,0000.14,0000.01,0000.37,-000.21,-000.39,0000.30,0000.28,0000.30,19.2,25.8,,00.0,0651.3,31.1
2021-11-05T17:08:00Z,00000200,01000000,-000.32,-000.25,-000.23,0000.40,-000.12,-000.22,0000.13,-000.06,-000.04,19.2,25.8,,00.0,0651.4,31.1
2021-11-05T17:09:00Z,00000200,01000000,-000.26,-000.04,-000.27,0000.28,0000.06,-000.19,0000.31,0000.48,0000.41,19.3,25.8,,00.0,0651.4,31.1
2021-11-05T17:10:00Z,00000200,01000000,0000.56,0000.07,0000.03,0000.45,-000.02,-000.13,0000.18,0000.27,0000.26,19.3,25.9,,00.0,0651.4,31.1
2021-11-05T17:11:00Z,00000200,01000000,-000.49,-000.08,0000.08,0000.60,-000.01,0000.11,0000.08,0000.26,-000.10,19.4,25.9,,00.0,0651.4,31.1
2021-11-05T17:12:00Z,00000200,01000000,-000.26,0000.02,-000.41,0001.01,-000.00,-000.03,0000.41,0000.19,0000.28,19.4,25.9,,00.0,0651.4,31.1
2021-11-05T17:13:00Z,00000200,01000000,0000.68,0000.10,-000.03,0000.05,0000.08,0000.28,0000.09,0000.23,0000.21,19.4,25.9,,00.0,0651.4,31.1
2021-11-05T17:14:00Z,00000200,01000000,-000.11,-000.23,-000.03,0000.33,0000.10,0000.27,0000.42,0000.23,0000.32,19.4,25.9,,00.0,0651.3,31.1
2021-11-05T17:15:00Z,00000200,01000000,-000.10,-000.02,0000.26,0000.33,-000.05,0000.07,0000.07,0000.27,-000.29,19.3,25.9,,00.0,0651.3,31.0
2021-11-05T17:16:00Z,00000200,01000000,-000.42,-000.15,-000.04,-000.04,-000.26,0000.10,0000.24,0000.43,0000.57,19.2,25.8,,00.0,0651.4,31.0
2021-11-05T17:17:00Z,00000200,01000000,-000.42,-000.34,-000.16,-000.45,-000.12,-000.02,0000.08,-000.40,0000.00,19.1,25.8,,00.0,0651.4,31.0
2021-11-05T17:18:00Z,00000200,01000000,-000.32,-000.24,0000.20,0000.12,0000.02,0000.11,0000.67,0000.70,0000.00,19.1,25.7,,00.0,0651.3,31.0
2021-11-05T17:19:00Z,00000200,01000000,0000.21,-000.41,-000.07,0000.66,0000.02,-000.00,0000.14,0000.31,0000.37,19.1,25.7,,00.0,0651.3,31.0
2021-11-05T17:20:00Z,00000200,01000000,-000.22,-000.18,-000.01,0000.51,-000.29,-000.16,0000.14,0000.24,0000.12,19.1,25.7,,00.0,0651.3,31.0
2021-11-05T17:21:00Z,00000200,01000000,0000.58,-000.01,0000.34,-000.14,-000.05,0000.21,0000.51,0000.24,0000.22,19.2,25.8,,00.0,0651.3,31.0
2021-11-05T17:22:00Z,00000200,01000000,0000.33,-000.14,-000.29,0000.20,-000.21,-000.09,0000.34,0000.01,0000.10,19.2,25.8,,00.0,0651.3,31.1
2021-11-05T17:23:00Z,00000200,01000000,-000.35,-000.10,0000.10,0000.23,-000.17,-000.13,0000.05,0000.62,0000.16,19.3,25.8,,00.0,0651.4,31.1
2021-11-05T17:24:00Z,00000200,01000000,-000.63,-000.25,0000.13,0000.24,-000.05,-000.43,0000.58,0000.14,0000.40,19.3,25.8,,00.0,0651.4,31.1
2021-11-05T17:25:00Z,00000200,01000000,-000.63,-000.12,0000.43,-000.32,-000.06,0000.20,0000.40,0000.24,-000.11,19.4,25.8,,00.0,0651.4,31.1
2021-11-05T17:26:00Z,00000200,01000000,-000.28,-000.04,-000.05,0000.04,-000.24,0000.05,-000.20,0000.03,0000.18,19.4,25.8,,00.0,0651.4,31.1
2021-11-05T17:27:00Z,00000200,01000000,0000.70,-000.06,-000.09,0000.50,0000.02,-000.21,0000.04,0000.06,0000.06,19.5,25.9,,00.0,0651.4,31.1
2021-11-05T17:28:00Z,00000200,01000000,-000.54,0000.08,0000.07,-000.16,-000.00,-000.08,0000.25,0000.16,0000.36,19.5,25.9,,00.0,0651.4,31.1
2021-11-05T17:29:00Z,00000200,01000000,-000.07,-000.01,-000.12,0000.18,0000.25,-000.01,0000.05,0000.07,0000.02,19.5,25.9,,00.0,0651.4,31.2
2021-11-05T17:30:00Z,00000200,01000000,0000.20,0000.15,-000.05,-000.11,0000.15,-000.64,0000.63,0000.75,0000.22,19.4,25.9,,00.0,0651.4,31.1
2021-11-05T17:31:00Z,00000200,01000000,-000.13,-000.03,-000.41,0000.08,-000.05,-000.16,-000.43,-000.50,-000.24,19.3,25.9,,00.0,0651.4,31.0
2021-11-05T17:32:00Z,00000200,01000000,-000.32,0000.19,0000.04,0000.83,0000.12,-000.23,0000.22,0000.03,0000.28,19.3,25.8,,00.0,0651.5,31.1
2021-11-05T17:33:00Z,00000200,01000000,-000.20,0000.08,-000.16,0000.28,0000.26,-000.21,-000.02,0000.02,0000.30,19.2,25.8,,00.0,0651.5,31.0
2021-11-05T17:34:00Z,00000200,01000000,0000.99,0000.33,-000.20,0000.24,-000.20,-000.09,0000.30,0000.05,-000.19,19.2,25.8,,00.0,0651.5,31.0
2021-11-05T17:35:00Z,00000200,01000000,-000.74,-000.07,-000.19,0000.13,-000.32,-000.10,-000.02,0000.42,0000.10,19.3,25.8,,00.0,0651.5,31.1
2021-11-05T17:36:00Z,00000200,01000000,-000.23,-000.23,0000.14,0000.25,-000.41,-000.49,0000.15,0000.01,-000.02,19.3,25.8,,00.0,0651.5,31.1
2021-11-05T17:37:00Z,00000200,01000000,-000.53,-000.18,-000.26,0000.50,0000.25,-000.25,0000.09,0000.28,0000.17,19.4,25.9,,00.0,0651.4,31.1
2021-11-05T17:38:00Z,00000200,01000000,-000.02,0000.00,-000.09,0000.50,0000.13,0000.14,0000.42,0000.55,0000.47,19.4,25.9,,00.0,0651.4,31.1
2021-11-05T17:39:00Z,00000200,01000000,0000.06,-000.39,-000.13,-000.22,-000.23,-000.56,0000.48,0000.19,0000.15,19.5,25.9,,00.0,0651.4,31.1
2021-11-05T17:40:00Z,00000200,01000000,0001.13,-000.01,-000.54,-000.07,0000.06,-000.27,0000.22,-000.13,0000.19,19.5,25.9,,00.0,0651.5,31.1
2021-11-05T17:41:00Z,00000200,01000000,-000.23,0000.10,-000.26,0000.07,-000.07,-000.28,0000.38,0000.48,0000.21,19.6,25.9,,00.0,0651.5,31.1
2021-11-05T17:42:00Z,00000200,01000000,0000.29,-000.12,-000.33,-000.40,0000.05,0000.19,0000.08,0000.71,0000.31,19.6,26.0,,00.0,0651.5,31.1
2021-11-05T17:43:00Z,00000200,01000000,0000.40,-000.08,-000.18,0000.13,0000.07,-000.30,-000.23,-000.21,-000.29,19.7,26.0,,00.0,0651.5,31.1
2021-11-05T17:44:00Z,00000200,01000000,-000.57,-000.09,-000.01,0000.09,-000.29,0000.05,0000.25,-000.29,0000.11,19.6,26.0,,00.0,0651.5,31.1
2021-11-05T17:45:00Z,00000200,01000000,0000.36,0000.27,-000.07,-000.22,0000.05,-000.29,0000.28,0000.28,0000.21,19.6,26.0,,00.0,0651.5,31.1
2021-11-05T17:46:00Z,00000200,01000000,0000.07,-000.28,-000.09,0000.35,-000.45,-000.07,0000.45,0000.19,0000.00,19.5,25.9,,00.0,0651.4,31.1
2021-11-05T17:47:00Z,00000200,01000000,-000.20,0000.06,-000.24,0000.25,0000.01,0000.03,-000.01,0000.23,0000.28,19.4,25.9,,00.0,0651.3,31.0
2021-11-05T17:48:00Z,00000200,01000000,-000.31,-000.14,-000.12,0000.35,-000.21,-000.25,0000.33,0000.64,0000.26,19.4,25.9,,00.0,0651.4,31.1
2021-11-05T17:49:00Z,00000200,01000000,-000.27,0000.19,-000.10,0000.66,-000.23,-000.12,0000.45,0000.31,0000.19,19.4,25.9,,00.0,0651.4,31.0
2021-11-05T17:50:00Z,00000200,01000000,0000.15,-000.26,0000.06,0000.20,0000.20,0000.06,0000.16,-000.31,0000.27,19.4,25.9,,00.0,0651.4,31.1
2021-11-05T17:51:00Z,00000200,01000000,0000.57,-000.24,-000.14,0000.19,0000.15,-000.19,0000.35,0000.36,-000.16,19.4,25.9,,00.0,0651.5,31.1
2021-11-05T17:52:00Z,00000200,01000000,0000.12,0000.19,-000.08,0000.36,-000.26,-000.01,-000.00,0000.01,0000.37,19.5,25.9,,00.0,0651.5,31.1
2021-11-05T17:53:00Z,00000200,01000000,0000.44,0000.19,-000.15,0000.42,-000.30,0000.06,-000.02,0000.41,0000.10,19.5,25.9,,00.0,0651.5,31.1
2021-11-05T17:54:00Z,00000200,01000000,-000.61,-000.14,-000.11,0000.21,-000.27,0000.02,0000.46,0000.20,0000.01,19.6,26.0,,00.0,0651.4,31.1
2021-11-05T17:55:00Z,00000200,01000000,-000.20,-000.18,-000.12,-000.11,-000.05,-000.25,0000.64,0000.43,0000.24,19.6,26.0,,00.0,0651.3,31.1
2021-11-05T17:56:00Z,00000200,01000000,0000.19,-000.09,-000.07,0000.54,-000.35,0000.02,0000.07,0000.13,0000.54,19.6,26.0,,00.0,0651.3,31.1
2021-11-05T17:57:00Z,00000200,41000000,,,,,,,0000.45,0000.71,-000.13,19.7,26.1,,00.0,0651.4,31.1
2021-11-05T17:58:00Z,00000200,61000000,,,,,,,0000.17,0000.08,0000.55,19.3,26.1,,00.0,0650.4,31.1
2021-11-05T17:59:00Z,00000200,21000000,,,,,,,0000.23,0000.22,-000.12,19.2,26.2,,00.0,0650.4,31.1
